Home   Weather   Hamilton   Past weeks

Flag for Canada Past Weather in Hamilton, Ontario, Canada — Yesterday and Last 2 Weeks

Now
73 °F

More clouds than sun.


Feels Like: 74 °F
Forecast: 62 / 72 °F
Wind: 8 mph from East

Location: Hamilton Airport

Current Time: Aug 17, 2017 at 11:39:14 am

Latest Report: Aug 17, 2017 at 11:00 am


Visibility: 15 mi

Pressure: 29.98 "Hg

Humidity: 78%

Dew Point: 66 °F

Location of HamiltonLocation

Past Weather in Hamilton — Graph

°F

Hamilton Temperature Yesterday

Maximum temperature yesterday: 75 °F (at 2:00 pm)
Minimum temperature yesterday: 55 °F (at 6:00 am)
Average temperature yesterday: 67 °F

High & Low Weather Summary for the Past Weeks

 TemperatureHumidityPressure
High82 °F (Aug 2, 1:00 pm)100% (Aug 2, 11:00 pm)30.20 "Hg (Aug 2, 11:00 pm)
Low50 °F (Aug 6, 4:00 am)45% (Aug 9, 5:00 pm)29.74 "Hg (Aug 4, 7:00 pm)
Average67 °F83%30.00 "Hg
* Reported Aug 2 10:00 am — Aug 17 10:00 am, Hamilton. Weather by CustomWeather, © 2017

Note: Actual official high and low records may vary slightly from our data, if they occured in-between our weather recording intervals... More about our weather records

Advertising

Hamilton Weather History for the Previous 24 Hours

Scroll right to see more
 ConditionsComfort  
Time TempWeatherWind HumidityBarometerVisibility
10:00 am
Thu, Aug 17
70 °FBroken clouds.6 mph88%29.99 "Hg12 mi
9:00 am66 °FPartly sunny.6 mph94%30.01 "Hg15 mi
8:00 am64 °FBroken clouds.6 mph94%30.02 "Hg15 mi
7:00 am61 °FPartly sunny.8 mph100%30.01 "Hg15 mi
6:00 am59 °FFog.7 mph100%30.01 "Hg15 mi
5:00 am61 °FPassing clouds.5 mph94%30.02 "Hg15 mi
4:00 am61 °FPassing clouds.7 mph94%30.02 "Hg15 mi
3:00 am61 °FClear.5 mph94%30.04 "Hg15 mi
2:00 am63 °FClear.6 mph94%30.06 "Hg15 mi
1:00 am63 °FClear.5 mph94%30.06 "Hg15 mi
12:00 am61 °FClear.6 mph88%30.07 "Hg15 mi
11:00 pm
Wed, Aug 16
64 °FPassing clouds.5 mph88%30.07 "Hg15 mi
10:00 pm66 °FPassing clouds.3 mph83%30.06 "Hg15 mi
9:00 pm68 °FPassing clouds.5 mph78%30.05 "Hg15 mi
8:00 pm68 °FScattered clouds.6 mph78%30.04 "Hg15 mi
7:00 pm73 °FPartly sunny.5 mph69%30.05 "Hg15 mi
6:00 pm73 °FPassing clouds.8 mph65%30.06 "Hg12 mi
5:00 pm75 °FScattered clouds.6 mph65%30.07 "Hg12 mi
4:00 pm75 °FScattered clouds.7 mph65%30.07 "Hg10 mi
3:00 pm75 °FScattered clouds.8 mph65%30.08 "Hg10 mi
2:00 pm75 °FBroken clouds.9 mph69%30.09 "Hg15 mi
1:00 pm73 °FBroken clouds.8 mph74%30.10 "Hg15 mi
12:00 pm72 °FBroken clouds.9 mph73%30.11 "Hg15 mi
11:00 am72 °FBroken clouds.3 mph78%30.11 "Hg15 mi
Weather by CustomWeather, © 2017

See weather overviewHow to use our weather pages